Total_Precipitation_Accumulation
2.86 2.75 2.80 2.72 2.58 2.41 2.27 2.15 2.11 2.00 1.97 1.90 1.91 1.91 1.83 1.81 1.88 1.95 1.94 1.98 2.08 2.06 1.99 1.99 1.98 2.08 2.22 2.22 2.27 2.39 2.55 2.78 2.91 2.60 2.42 2.34 2.32 2.36 2.38 2.23 2.06 1.91 1.70
2.39 2.49 2.61 2.53 2.42 2.26 2.13 2.07 2.05 1.90 1.85 1.85 1.86 1.82 1.66 1.62 1.79 1.87 1.85 1.83 1.94 1.91 1.87 1.94 1.94 1.98 2.06 2.11 2.21 2.32 2.48 2.69 2.79 2.81 2.63 2.42 2.33 2.32 2.39 2.32 2.00 1.79 1.68
2.09 2.10 2.17 2.18 2.11 2.05 1.84 1.78 1.80 1.79 1.77 1.76 1.66 1.65 1.60 1.57 1.68 1.71 1.73 1.70 1.71 1.77 1.80 1.87 1.87 1.94 1.95 2.01 2.10 2.16 2.30 2.40 2.61 2.68 2.56 2.43 2.33 2.23 2.42 2.23 2.08 2.20 1.78
2.02 2.10 2.03 2.02 2.05 2.06 1.95 1.79 1.71 1.70 1.69 1.66 1.60 1.55 1.56 1.56 1.48 1.45 1.48 1.56 1.66 1.63 1.57 1.65 1.69 1.76 1.80 1.92 1.90 1.99 2.10 2.28 2.47 2.55 2.40 2.23 2.17 2.21 2.36 2.34 2.25 2.18 2.01
1.87 1.97 2.01 1.92 1.85 1.83 1.87 1.74 1.55 1.49 1.45 1.53 1.48 1.42 1.44 1.39 1.27 1.29 1.34 1.33 1.44 1.45 1.41 1.43 1.45 1.48 1.50 1.53 1.51 1.74 1.96 2.15 2.28 2.38 2.30 2.20 2.15 2.29 2.26 2.19 2.18 2.16 2.00
1.65 1.84 1.94 1.85 1.76 1.67 1.70 1.68 1.63 1.56 1.52 1.49 1.47 1.42 1.35 1.23 1.20 1.14 1.15 1.20 1.30 1.40 1.47 1.43 1.31 1.25 1.19 1.13 1.19 1.35 1.60 1.87 2.13 2.28 2.24 2.21 2.17 2.22 2.31 2.29 2.28 2.33 2.25
1.62 1.64 1.74 1.74 1.78 1.76 1.71 1.69 1.72 1.75 1.72 1.58 1.45 1.42 1.34 1.25 1.19 1.01 0.96 1.04 1.26 1.39 1.48 1.48 1.21 1.06 1.15 1.12 1.18 1.20 1.30 1.45 1.73 2.06 2.20 2.13 2.16 2.24 2.43 2.50 2.45 2.43 2.35
1.58 1.51 1.54 1.54 1.58 1.61 1.69 1.73 1.73 1.71 1.70 1.65 1.52 1.47 1.38 1.16 1.04 0.88 0.91 0.98 1.15 1.16 1.18 1.28 1.33 1.31 1.18 1.21 1.23 1.31 1.36 1.46 1.53 1.67 1.93 1.95 1.94 2.13 2.36 2.43 2.43 2.38 2.30
1.43 1.36 1.32 1.30 1.37 1.40 1.48 1.62 1.72 1.73 1.63 1.52 1.44 1.41 1.34 1.19 1.08 0.97 0.97 1.01 1.10 1.04 0.96 1.01 1.06 1.11 1.11 1.15 1.26 1.47 1.51 1.61 1.55 1.71 1.74 1.70 1.74 1.82 1.87 2.04 2.36 2.58 2.48
1.36 1.23 1.19 1.24 1.35 1.38 1.42 1.57 1.64 1.69 1.54 1.35 1.29 1.32 1.27 1.23 1.09 0.91 0.87 0.87 1.01 1.05 1.08 1.12 1.04 0.91 0.96 1.06 1.29 1.58 1.73 1.76 1.77 1.88 1.86 1.83 1.73 1.72 1.70 1.83 2.26 2.59 2.59
1.24 1.22 1.25 1.28 1.39 1.40 1.49 1.60 1.54 1.41 1.41 1.34 1.28 1.30 1.20 1.07 0.92 0.77 0.74 0.75 0.89 0.98 1.02 1.08 1.06 0.89 0.79 0.86 1.08 1.36 1.56 1.64 1.89 2.12 2.00 1.83 1.81 1.80 1.77 1.78 2.01 2.24 2.28
1.23 1.28 1.33 1.32 1.26 1.25 1.44 1.55 1.49 1.44 1.39 1.34 1.29 1.23 1.10 0.98 0.84 0.73 0.65 0.60 0.65 0.85 1.04 1.05 1.03 0.97 0.89 0.94 1.07 1.25 1.40 1.59 1.83 1.99 1.81 1.65 1.57 1.56 1.63 1.61 1.64 1.71 1.80
1.23 1.38 1.44 1.37 1.40 1.38 1.37 1.42 1.49 1.51 1.37 1.26 1.21 1.14 1.05 0.97 0.86 0.71 0.61 0.57 0.59 0.70 0.90 1.00 0.97 0.92 0.98 1.18 1.30 1.40 1.57 1.80 1.87 1.76 1.65 1.53 1.43 1.49 1.49 1.47 1.48 1.57 1.56
1.28 1.39 1.43 1.45 1.51 1.47 1.38 1.25 1.22 1.23 1.21 1.14 1.09 1.00 0.99 0.99 0.82 0.70 0.69 0.65 0.65 0.70 0.87 1.04 1.10 1.08 1.20 1.37 1.49 1.58 1.70 1.81 1.70 1.59 1.54 1.46 1.36 1.44 1.49 1.44 1.57 1.65 1.67
1.23 1.30 1.32 1.35 1.39 1.43 1.33 1.19 1.13 1.04 0.99 0.96 0.88 0.81 0.86 0.85 0.72 0.68 0.62 0.64 0.71 0.76 0.86 1.04 1.16 1.20 1.29 1.43 1.54 1.60 1.65 1.66 1.61 1.51 1.47 1.42 1.36 1.36 1.33 1.30 1.46 1.59 1.63
1.13 1.12 1.07 1.12 1.18 1.21 1.24 1.16 0.96 0.80 0.70 0.64 0.64 0.61 0.56 0.55 0.54 0.53 0.55 0.60 0.68 0.79 0.92 1.17 1.26 1.24 1.26 1.33 1.45 1.54 1.52 1.51 1.49 1.54 1.56 1.55 1.50 1.41 1.36 1.29 1.32 1.43 1.54
1.07 1.04 0.94 0.89 0.98 1.03 1.03 1.10 1.03 0.80 0.58 0.48 0.49 0.53 0.51 0.46 0.44 0.45 0.49 0.57 0.65 0.78 0.94 1.14 1.26 1.28 1.28 1.30 1.34 1.41 1.46 1.44 1.40 1.44 1.50 1.47 1.39 1.31 1.30 1.28 1.27 1.37 1.43
0.95 0.90 0.85 0.87 0.87 0.86 0.85 0.86 0.88 0.95 0.85 0.65 0.53 0.53 0.51 0.50 0.49 0.47 0.53 0.59 0.65 0.72 0.92 1.12 1.23 1.26 1.29 1.32 1.32 1.30 1.35 1.42 1.38 1.34 1.40 1.40 1.32 1.27 1.31 1.33 1.31 1.28 1.30
0.98 0.92 0.86 0.84 0.81 0.77 0.74 0.71 0.71 0.77 0.82 0.80 0.72 0.63 0.61 0.60 0.61 0.61 0.65 0.69 0.77 0.80 0.87 0.99 1.11 1.18 1.17 1.20 1.26 1.28 1.30 1.36 1.33 1.33 1.36 1.39 1.36 1.33 1.28 1.21 1.17 1.08 1.12
0.94 0.92 0.89 0.86 0.75 0.70 0.68 0.68 0.68 0.74 0.78 0.78 0.79 0.78 0.78 0.81 0.85 0.81 0.76 0.79 0.82 0.82 0.82 0.91 1.02 1.06 1.06 1.02 1.04 1.08 1.12 1.15 1.18 1.24 1.29 1.26 1.20 1.17 1.12 1.06 1.06 1.09 1.12
0.84 0.89 0.89 0.79 0.69 0.64 0.66 0.65 0.63 0.68 0.71 0.75 0.70 0.71 0.88 0.91 0.95 0.90 0.89 0.92 0.96 0.96 0.93 0.95 0.99 1.01 1.02 0.99 0.97 0.95 0.98 1.04 1.07 1.09 1.14 1.13 1.07 1.03 0.99 0.93 0.90 0.92 0.95
0.82 0.82 0.81 0.74 0.71 0.66 0.64 0.64 0.61 0.64 0.67 0.71 0.68 0.68 0.84 0.84 0.88 0.91 0.97 1.04 1.07 1.04 1.01 1.01 0.98 0.96 0.99 1.03 1.01 1.00 1.00 1.04 1.03 1.05 1.06 1.04 1.01 0.96 0.89 0.87 0.84 0.82 0.85
0.77 0.80 0.82 0.80 0.77 0.75 0.73 0.69 0.68 0.68 0.68 0.68 0.68 0.69 0.75 0.83 0.89 0.97 1.04 1.07 1.08 1.08 1.01 0.96 1.03 1.07 1.00 0.95 0.93 0.95 0.95 0.98 0.98 1.04 1.13 1.12 1.02 0.92 0.87 0.84 0.83 0.84 0.83
0.77 0.78 0.79 0.82 0.84 0.83 0.82 0.78 0.69 0.62 0.61 0.62 0.64 0.64 0.68 0.74 0.81 0.87 0.95 1.00 1.06 1.09 1.06 1.03 1.08 1.03 0.92 0.88 0.86 0.85 0.89 0.94 0.96 0.99 1.04 1.07 1.02 0.93 0.86 0.84 0.82 0.84 0.87
0.73 0.74 0.73 0.71 0.71 0.74 0.78 0.79 0.73 0.66 0.60 0.57 0.57 0.60 0.64 0.69 0.74 0.80 0.86 0.90 0.94 1.03 1.00 1.00 1.01 0.93 0.84 0.79 0.77 0.78 0.89 0.88 0.83 0.88 0.93 0.97 0.91 0.86 0.83 0.79 0.79 0.81 0.85
0.64 0.65 0.66 0.63 0.59 0.58 0.58 0.57 0.58 0.62 0.65 0.63 0.58 0.60 0.66 0.66 0.67 0.72 0.77 0.84 0.90 0.93 0.93 0.97 0.97 0.89 0.81 0.77 0.74 0.72 0.69 0.61 0.57 0.63 0.75 0.81 0.77 0.74 0.76 0.77 0.75 0.79 0.84